This is the latest recevied weather packets stored in our database for station/object KC5EZZ-2. If no packets are shown the sender has not sent any weather packets the latest 10 day(s).
| Time | Temp. | Humidity | Pressure | Rain* | Wind** | Luminosity | Snow |
|---|---|---|---|---|---|---|---|
| 1777676076 | 14.44° C | - | - | 0 mm | 4.47 m/s, 13° | - | - |
| 1777675774 | 13.89° C | - | - | 0 mm | 5.36 m/s, 27° | - | - |
| 1777675475 | 13.89° C | - | - | 0 mm | 5.36 m/s, 17° | - | - |
| 1777675175 | 13.89° C | - | - | 0 mm | 4.47 m/s, 60° | - | - |
| 1777674873 | 13.89° C | - | - | 0 mm | 2.68 m/s, 10° | - | - |
| 1777674574 | 13.33° C | - | - | 0 mm | 4.02 m/s, 4° | - | - |
| 1777674275 | 13.33° C | - | - | 0 mm | 5.36 m/s, 0° | - | - |
| 1777673973 | 13.33° C | - | - | 0 mm | 5.81 m/s, 7° | - | - |
| 1777673673 | 12.78° C | - | - | 0 mm | 5.36 m/s, 21° | - | - |
| 1777673373 | 13.33° C | - | - | 0 mm | 5.81 m/s, 21° | - | - |
| 1777673071 | 12.78° C | - | - | 0 mm | 4.92 m/s, 17° | - | - |
| 1777672771 | 13.33° C | - | - | 0 mm | 6.26 m/s, 10° | - | - |
| 1777672472 | 13.33° C | - | - | 0 mm | 5.81 m/s, 17° | - | - |
| 1777672170 | 13.33° C | - | - | 0 mm | 5.36 m/s, 27° | - | - |
| 1777671870 | 13.33° C | - | - | 0 mm | 5.36 m/s, 25° | - | - |
| 1777671571 | 13.33° C | - | - | 0 mm | 5.36 m/s, 6° | - | - |
| 1777671268 | 12.78° C | - | - | 0 mm | 4.02 m/s, 14° | - | - |
| 1777670969 | 13.33° C | - | - | 0 mm | 4.47 m/s, 38° | - | - |
| 1777670669 | 13.33° C | - | - | 0 mm | 5.36 m/s, 24° | - | - |
| 1777670367 | 13.33° C | - | - | 0 mm | 4.02 m/s, 51° | - | - |
| 1777670068 | 12.78° C | - | - | 0 mm | 5.81 m/s, 1° | - | - |
| 1777669768 | 13.33° C | - | - | 0 mm | 6.26 m/s, 11° | - | - |
| 1777669166 | 13.33° C | - | - | 0 mm | 6.71 m/s, 39° | - | - |
| 1777668867 | 13.33° C | - | - | 0.51 mm | 6.71 m/s, 27° | - | - |
| 1777668565 | 13.33° C | - | - | 0.51 mm | 6.26 m/s, 10° | - | - |
* Rain latest hour (hover to see other rain measurements)
** Current wind speed in m/s (hover to see current wind gust speed)